Regional Weather Roundup
Issued by NWS Charleston, SC

Home | Current Version | Previous Version | Text Only | Print | Product List | Glossary On
Versions: 1 2 3 4 5 6 7 8 9 10 11 12 13 14 15 16 17 18 19 20 21 22 23 24 25 26 27 28 29 30 31 32 33 34 35 36 37 38 39 40 41 42 43 44 45 46 47 48 49 50
000
ASUS42 KCHS 282126
RWRCHS

REGIONAL WEATHER ROUNDUP
NATIONAL WEATHER SERVICE CHARLESTON SC
400 PM EST SAT FEB 28 2015

NOTE: "FAIR" INDICATES FEW OR NO CLOUDS BELOW 12,000 FEET WITH NO
SIGNIFICANT WEATHER AND/OR OBSTRUCTIONS TO VISIBILITY.

NOT ALL STATIONS ARE QUALITY CONTROLLED BY THE NATIONAL
WEATHER SERVICE. USE DATA WITH CAUTION...ESPECIALLY
DEWPOINT OBSERVATIONS.

SCZ027-030-031-034>040-042>050-282200-
...SOUTHEAST SOUTH CAROLINA...

CITY           SKY/WX    TMP DP  RH WIND       PRES   REMARKS
N CHARLESTON   LGT RAIN  51  30  44 NE9       30.56S
WATERFRONT PRK NOT AVBL
MOUNT PLEASANT CLOUDY    48  28  46 CALM      30.56S
PINOPOLIS        N/A     52  36  54 NE7       30.49S
MONCKS CORNER  CLOUDY    54  28  37 NE8       30.56F
SUMMERVILLE    DRIZZLE   52  32  46 NE8       30.55F
BEAUFORT MCAS  LGT RAIN  46  39  76 NE6       30.56R
BEAUFORT ARPT  LGT RAIN  45  37  76 NE13      30.55R
HILTON HEAD IS PTSUNNY   46  39  76 N8G14     30.55R
WALTERBORO     DRIZZLE   52  34  50 NE8       30.55S
ALLENDALE      CLOUDY    52  32  46 VRB5G12   30.54S

...SOUTHERN MIDLANDS AND PEE DEE...

CITY           SKY/WX    TMP DP  RH WIND       PRES   REMARKS
GEORGETOWN     NOT AVBL
KINGSTREE      NOT AVBL
ORANGEBURG     PTSUNNY   52  26  36 E14G20    30.57S
BARNWELL       CLOUDY    54  32  43 NE10      30.56R
AIKEN          FAIR      50  30  46 NE14      30.58S
MANNING        MOCLDY    54  16  22 NE9       30.58S
COLUMBIA       PTSUNNY   52  26  36 NE9G17    30.58F
SUMTER         PTSUNNY   50  26  38 E13       30.58S
FLORENCE       SUNNY     50  25  37 NE17      30.61F
MYRTLE BEACH   CLOUDY    52  27  37 NE15      30.61F
N MYRTLE BEACH CLOUDY    50  25  37 NE10      30.60R

$$

GAZ063-065-086>088-099>101-113>116-118-119-134>141-150-282200-
...SOUTHEAST GEORGIA...

CITY           SKY/WX    TMP DP  RH WIND       PRES   REMARKS
SAVANNAH ARPT  CLOUDY    44  38  79 NE14      30.54R HAZE
HUNTER AAF     PTSUNNY   45  41  87 VRB6      30.50S
FORT STEWART   LGT RAIN  44  41  90 NE10      30.49F
STATESBORO     DRIZZLE   44  44 100 CALM      30.55S
SYLVANIA       LGT RAIN  46  43  88 E6        30.55R
CLAXTON        RAIN      43  43 100 NE12      30.53F

...CSRA...CENTRAL AND FAR SOUTHEAST GEORGIA...

CITY           SKY/WX    TMP DP  RH WIND       PRES   REMARKS
THOMSON        MOSUNNY   54  35  48 NE9       30.58S
AUGUSTA-BUSH   MOSUNNY   52  28  39 NE13      30.55S
AUGUSTA-DANIEL SUNNY     53  28  38 E10G18    30.54F
SWAINSBORO     DRIZZLE   46  41  81 E6        30.53F
VIDALIA        RAIN      45  43  93 E12       30.51S
EASTMAN        CLOUDY    45  45 100 E14G22    30.53S
HAZLEHURST     DRIZZLE   45  45 100 NE8       30.49S
ALMA           LGT RAIN  43  41  93 VRB7      30.48F FOG
WAYCROSS       RAIN      47  46  96 NE13G21   30.47S
JESUP          DRIZZLE   46  45  93 NE9       30.49F
BAXLEY         RAIN      45  43  93 NE9       30.49S
BRUNSWICK      CLOUDY    45  41  87 NE15G30   30.48S
SAINT SIMONS   CLOUDY    46  43  89 NE21G30   30.47R FOG

$$

SCZ027-028-034-036>038-045-046-048>050-GAZ119-141-282200-
...LAKE AND SUPPLEMENTAL COASTAL OBSERVATIONS...

STATION/POSITION TIME  TEMP    WIND        PRES    WAVE   SWELL
                       AIR SEA DIR/SP/G            HT/PER HT/PER/DIR
                 (UTC) (F)     (DEG/KT/KT) (MB)    (FT/S) (FT/S/D)
UPR LAKE MARION  NOT AVBL
WINYAH BAY       2000   45      50/ 12     1034.0F
LAKE MURRAY      2100   49      30/  4/  6 1034.5F
ACE BASIN NERRS  NOT AVBL
FORT PULASKI     2000   45 49   40/ 14/ 18 1034.0F
SAPELO ISLAND    2100   43      30/ 20     1032.0S

$$

ANZ835-935-AMZ111-154-330-350-352-354-370-450-454-472-282200-
...C-MAN AND BUOY OBSERVATIONS...

STATION/POSITION TIME  TEMP    WIND        PRES    WAVE   SWELL
                       AIR SEA DIR/SP/G            HT/PER HT/PER/DIR
                 (UTC) (F)     (DEG/KT/KT) (MB)    (FT/S) (FT/S/D)
BUOY 41004       2050   52 66   40/ 27/ 33 1032.6R   9/ 8   5/ 8
BUOY 41008       2050   48 52   30/ 29/ 35 1030.0F  10/ 8
FOLLY BEACH CMAN 2100   47      40/ 19/ 21 1035.3R
CAPERS NEARSHORE NOT AVBL
FRIPP NEARSHORE  2000   45      50/ 23/ 29 1032.2F


STATION/POSITION TIME  TEMP    WIND        PRES    WAVE   SWELL
                       AIR SEA DIR/SP/G            HT/PER HT/PER/DIR
                 (UTC) (F)     (DEG/KT/KT) (MB)    (FT/S) (FT/S/D)
5E ST. MARYS GA  2021      53                N/A     7/ 8   2/ 70/11
FRYING PAN BUOY  2050   48 62   50/ 25/ 31 1035.3F   9/ 6
BUOY 41025       NOT AVBL
CAPE LOOKOUT NC  2100   38      20/ 19/ 23 1038.1R
BUOY 41002       2050   65 69   60/ 21/ 27 1031.7S  10/ 8
BUOY 41010       2020   71 72   60/ 21/ 25 1026.8F
ST AUGUSTINE FL  2100   56     340/ 10/ 12 1028.4F


$$


USA.gov is the U.S. government's official web portal to all federal, state and local government web resources and services.